Regional Weather Roundup
Issued by NWS

Home | Current Version | Previous Version | Text Only | Print | Product List | Glossary Off
Versions: 1 2 3 4 5 6 7 8 9 10 11 12 13 14 15 16 17 18 19 20 21 22 23 24 25 26 27 28 29 30 31 32 33 34 35 36 37 38 39 40 41 42 43 44 45 46 47 48 49 50

000
ASUS43 KMKX 201600
RWRWI

WISCONSIN REGIONAL WEATHER ROUNDUP
NATIONAL WEATHER SERVICE MILWAUKEE/SULLIVAN WI
1100 AM CDT SAT SEP 20 2014

NOTE: "FAIR" INDICATES FEW OR NO CLOUDS BELOW 12,000 FEET WITH NO
SIGNIFICANT WEATHER AND/OR OBSTRUCTIONS TO VISIBILITY.

WIZ001-002-006>008-014>016-023>028-201700-
NORTHWEST WISCONSIN

CITY           SKY/WX    TMP DP  RH WIND       PRES   REMARKS
SUPERIOR ARPT  CLOUDY    63  54  72 NW12      29.74R
ASHLAND        CLOUDY    67  57  70 W12G21    29.71R
HAYWARD        PTSUNNY   67  57  70 NW9       29.75R
SIREN          PTSUNNY   66  57  74 NW12      29.77R
RICE LAKE      PTSUNNY   67  56  68 NW9G18    29.77R
LADYSMITH      PTSUNNY   68  60  74 NW12      29.75S
EAU CLAIRE     CLOUDY    69  59  70 W13       29.77R
MENOMONIE      PTSUNNY   68  59  73 W10       29.78R
NEW RICHMOND   MOSUNNY   67  58  71 NW10      29.79R
OSCEOLA        MOSUNNY   68  59  74 NW8       29.81R
$$

WIZ003>005-009-010-017-018-201700-
NORTH CENTRAL WISCONSIN

CITY           SKY/WX    TMP DP  RH WIND       PRES   REMARKS
WOODRUFF       PTSUNNY   69  60  73 NW14G20   29.69S
RHINELANDER    MOSUNNY   71  60  68 W15G24    29.69S
EAGLE RIVER    PTSUNNY   69  57  65 NW16G23   29.67S
LAND O LAKES   PTSUNNY   68  58  70 W10G22    29.68R
PHILLIPS       CLOUDY    66  57  74 W9G16     29.72R
TOMAHAWK       PTSUNNY   70  60  72 W12       29.70S
MEDFORD        CLOUDY    67  62  84 W8G16     29.73R
MERRILL        PTSUNNY   70  63  79 W15       29.70S
$$

WIZ029-030-035-036-043>047-201700-
CENTRAL WISCONSIN

CITY           SKY/WX    TMP DP  RH WIND       PRES   REMARKS
WAUSAU         PTSUNNY   71  62  73 W18       29.70S
MOSINEE        CLOUDY    66  64  94 W13G20    29.74R
MARSHFIELD     CLOUDY    69  63  81 W15       29.75R
STEVENS POINT  CLOUDY    66  61  85 W10G17    29.74S
WAUPACA        PTSUNNY   73  65  76 W14G22    29.71F
WAUTOMA        PTSUNNY   73  64  73 W13G24    29.74S
WISC RAPIDS    CLOUDY    70  63  78 W8G18     29.75F
CAMP DOUGLAS   NOT AVBL
$$

WIZ011>013-019>022-031-037>040-048>050-201700-
NORTHEAST WISCONSIN

CITY           SKY/WX    TMP DP  RH WIND       PRES   REMARKS
ANTIGO         CLOUDY    67  62  84 W13G20    29.71S
STURGEON BAY   PTSUNNY   70  63  78 W16G23    29.68S
GREEN BAY      CLOUDY    71  63  75 SW14G21   29.70F
MANITOWOC      NOT AVBL
APPLETON       PTSUNNY   72  64  78 SW20G25   29.72S
CLINTONVILLE   CLOUDY    70  63  78 W10G16    29.69F
OSHKOSH        MOSUNNY   72  63  73 SW10G21   29.72S
$$

WIZ032>034-041-042-053>061-201700-
SOUTHWEST WISCONSIN

CITY           SKY/WX    TMP DP  RH WIND       PRES   REMARKS
LA CROSSE      CLOUDY    70  63  78 W7        29.78R
SPARTA         CLOUDY    68  62  81 W6        29.77S
VIROQUA        FAIR      66  66  99 W12G18    29.80R
BOSCOBEL       PTSUNNY   73  64  73 W9        29.80S
PRAIRIE DU CHI PTSUNNY   72  61  69 W6G16     29.80S
PLATTEVILLE    FAIR      72  64  76 W12G17    29.84S
$$

WIZ056-057-062-063-064-067-068-201700-
SOUTH CENTRAL WISCONSIN

CITY           SKY/WX    TMP DP  RH WIND       PRES   REMARKS
BARABOO/DELLS  PTSUNNY   71  62  72 W14G21    29.75F
LONE ROCK      NOT AVBL
WATERTOWN      MOSUNNY   72  64  76 SW15G21   29.79F
MADISON        PTSUNNY   72  62  71 SW9G17    29.78F
MIDDLETON      FAIR      73  63  70 W13G18    29.79F
MONROE         PTSUNNY   70  63  78 SW16      29.83S
JANESVILLE     SUNNY     73  63  68 SW17      29.83S
$$

WIZ051-052-058>065-066-070>072-201700-
SOUTHEAST WISCONSIN

CITY           SKY/WX    TMP DP  RH WIND       PRES   REMARKS
MILWAUKEE      PTSUNNY   72  61  68 SW14      29.81F
WAUKESHA       SUNNY     70  61  73 SW12G18   29.82F
MILWAUKEE/TIMM SUNNY     72  61  68 SW12G21   29.80F
RACINE         PTSUNNY   72  61  68 SW12      29.82F
BURLINGTON     PTSUNNY   71  60  67 SW14      29.81F
KENOSHA        PTSUNNY   71  62  73 SW14      29.82F
FOND DU LAC    MOSUNNY   71  62  73 SW15G32   29.74F
SHEBOYGAN      MOSUNNY   74  62  66 SW17G28   29.73F
WEST BEND      MOSUNNY   68  61  77 SW15      29.78S
JUNEAU         PTSUNNY   68  63  84 S17G24    29.79F
$$

LSZ147-162-201700-
LAKE SUPERIOR

STATION/POSITION TIME  TEMP    WIND        PRES    WAVE
                       AIR SEA DIR/SP/G            HT/PER
                 (UTC) (F)     (DEG/KT/KT) (MB)    (FT/S)
W MID LAKE BUOY  1450   54 47  260/ 17/ 19 1001.8R   2/ 3
DEVILS ISLAND    1500   56     250/ 15/ 17 1004.2R
PORT WING        1500   61     260/ 15/ 19 1005.8R
SAXON HARBOR     1500   67     280/  7/ 10 1005.1R
$$

LMZ867-665-643>646-201700-
LAKE MICHIGAN

STATION/POSITION TIME  TEMP    WIND        PRES    WAVE
                       AIR SEA DIR/SP/G            HT/PER
                 (UTC) (F)     (DEG/KT/KT) (MB)    (FT/S)
N MID LAKE BUOY  1450   60 58  200/ 19/ 25 1004.0F   5/ 7
NORTHPORT PIER   1500   68     220/  5/ 10 1004.1S
KEWAUNEE LAKESHO 1500   69     220/ 11/ 19 1004.9F
SHEBOYGAN LAKESH 1500   67 54  230/  9/ 11 1007.3F
PORT WASHINGTON  1500   68     230/ 11/ 17 1008.8F
ATWATER BUOY     1530   65     220/ 12/ 16 1010.0F
MILWAUKEE LAKESH 1500   67     240/ 15/ 20   N/A
S MID LAKE BUOY  1450   65 63  220/ 21/ 25 1010.1R   5/ 6
KENOSHA   LAKESH 1500   68     240/ 12/ 21 1010.2R
$$

TC  - TEMPERATURE IN CELSIUS
VSB - VISIBILITY IN STATUTE MILES
WCI - WIND CHILL INDEX
HX  - HEAT INDEX




USA.gov is the U.S. government's official web portal to all federal, state and local government web resources and services.